Tracking 19817 objects as of 18-Aug-2019
HD Live streaming from Space Station
objects crossing your sky now

COSMOS 1823 DEB

Track COSMOS 1823 DEB now!
10-day predictions


NORAD ID: 20285
Int'l Code: 1987-020DP
Perigee: 1,491.6 km
Apogee: 1,620.7 km
Inclination: 73.6 °
Period: 117.1 minutes
Semi major axis: 7927 km
RCS: 0.0247 m2 (small)
Launch date: February 20, 1987
Source: Commonwealth of Independent States (former USSR) (CIS)
Launch site: PLESETSK MISSILE AND SPACE COMPLEX (PKMTR)

Note: This is SATELLITE DEBRIS
aabbcc
Your satellite tracking list
Your tracking list is empty




NASA's NSSDC Master Catalog

Two Line Element Set (TLE):
1 20285U 87020DP  19228.84397038 +.00000036 +00000-0 +44362-3 0  9999
2 20285 073.6433 171.6145 0081408 135.0825 254.1039 12.30065014291351
Source of the keplerian elements: AFSPC